20050428,000002,1155435,33.885456,-121.673500,4.7,15.455,32.850,40.974,2202.10,0.0,0.878,14.843,14.810, NaN,24.216,   NaN,14.60,1013.20,91.36,15.07,317.8,317.6,8.7,9.2,160.7,163.3,5.8,6.2,NaN, NaN,13.4,241.6,239.9,1114646402,1114646402,1,10.7,000002,000002,240.5,33.885481,-121.673348,9.97,NaN,NaN,15.459, NaN,NaN,NaN, NaN, NaN
20050428,000032,1155465,33.884698,-121.675003,5.0,15.466,32.850,40.984,2213.62,0.0,0.878,14.840,14.804, NaN,24.213,   NaN,14.58,1013.09,91.21,15.06,319.0,319.9,8.6,9.2,161.4,166.5,5.6,6.0,NaN, NaN,12.9,238.4,239.2,1114646433,1114646432,1,10.9,000032,000032,241.0,33.884715,-121.674848,10.10,NaN,NaN,15.470, NaN,NaN,NaN, NaN, NaN
20050428,000102,1155495,33.883925,-121.676503,4.7,15.473,32.856,40.997,2206.55,0.0,0.878,14.831,14.797, NaN,24.216,   NaN,14.56,1013.15,91.15,15.07,318.1,319.8,8.6,9.2,160.4,166.5,5.6,6.0,NaN, NaN,19.8,236.9,237.4,1114646463,1114646462,1,10.3,000062,000062,240.5,33.883950,-121.676346,10.00,NaN,NaN,15.477, NaN,NaN,NaN, NaN, NaN
20050428,000132,1155525,33.883166,-121.678013,5.0,15.481,32.860,41.009,2156.97,0.0,0.897,14.815,14.779, NaN,24.217,   NaN,14.56,1013.09,91.26,15.07,316.4,319.2,8.8,9.2,159.9,165.7,6.0,6.1,NaN, NaN,19.0,239.2,237.7,1114646493,1114646492,1,10.8,000092,000092,241.0,33.883186,-121.677856,9.88,NaN,NaN,15.485, NaN,NaN,NaN, NaN, NaN
20050428,000202,1155555,33.882406,-121.679515,4.9,15.488,32.864,41.021,2139.00,0.0,0.897,14.806,14.774, NaN,24.219,   NaN,14.60,1013.04,91.33,15.08,317.9,319.1,8.8,9.2,161.6,165.5,5.8,6.0,NaN, NaN,17.9,242.7,241.0,1114646522,1114646522,1,10.4,000122,000122,240.9,33.882433,-121.679348,9.80,NaN,NaN,15.492, NaN,NaN,NaN, NaN, NaN
20050428,000232,1155585,33.881643,-121.681023,4.8,15.488,32.871,41.029,2148.71,0.0,0.897,14.804,14.774, NaN,24.225,   NaN,14.56,1013.05,91.14,15.07,319.8,319.3,8.7,9.2,163.3,165.9,5.6,6.0,NaN, NaN,18.8,240.8,238.9,1114646552,1114646552,1,10.5,000152,000152,240.5,33.881671,-121.680866,9.81,NaN,NaN,15.492, NaN,NaN,NaN, NaN, NaN
20050428,000303,1155616,33.880891,-121.682520,5.0,15.485,32.883,41.039,2107.16,0.0,0.878,14.800,14.768, NaN,24.235,   NaN,14.59,1012.97,91.33,15.09,318.6,319.9,8.5,9.0,160.3,164.9,5.6,5.8,NaN, NaN,19.0,238.1,240.0,1114646583,1114646582,1,10.5,000182,000182,241.0,33.880915,-121.682358,9.83,NaN,NaN,15.489, NaN,NaN,NaN, NaN, NaN
20050428,000332,1155645,33.880125,-121.684016,4.9,15.477,32.898,41.049,2108.71,0.0,0.878,14.800,14.767, NaN,24.248,   NaN,14.60,1013.03,91.28,15.11,318.6,319.5,8.5,9.0,160.5,164.8,5.5,5.8,NaN, NaN,18.8,238.1,237.3,1114646612,1114646612,1,11.0,000212,000212,240.9,33.880158,-121.683848,9.99,NaN,NaN,15.481, NaN,NaN,NaN, NaN, NaN
20050428,000402,1155675,33.879371,-121.685513,4.7,15.465,32.913,41.055,2127.01,0.0,0.878,14.797,14.766, NaN,24.262,   NaN,14.60,1012.96,91.25,15.11,319.1,319.3,8.6,9.0,161.7,164.6,5.5,5.8,NaN, NaN,19.5,240.4,241.8,1114646642,1114646642,1,10.6,000242,000242,240.8,33.879405,-121.685346,9.86,NaN,NaN,15.469, NaN,NaN,NaN, NaN, NaN
20050428,000432,1155705,33.878605,-121.687006,4.6,15.463,32.916,41.056,2136.38,0.0,0.897,14.798,14.765, NaN,24.265,   NaN,14.57,1013.05,91.22,15.10,319.5,319.4,8.5,8.8,161.0,163.5,5.4,5.7,NaN, NaN,18.6,243.0,238.9,1114646672,1114646672,1,10.3,000272,000272,240.9,33.878633,-121.686846,9.90,NaN,NaN,15.467, NaN,NaN,NaN, NaN, NaN
20050428,000502,1155735,33.877836,-121.688525,4.7,15.453,32.927,41.059,2100.91,0.0,0.972,14.801,14.771, NaN,24.275,   NaN,14.58,1012.95,91.27,15.11,318.7,319.0,8.2,8.8,157.9,162.6,5.3,5.7,NaN, NaN,19.3,233.7,235.6,1114646702,1114646702,1,10.7,000302,000302,240.4,33.877876,-121.688368,9.79,NaN,NaN,15.457, NaN,NaN,NaN, NaN, NaN
20050428,000533,1155766,33.877083,-121.690035,4.7,15.443,32.935,41.058,2106.27,0.0,0.972,14.805,14.774, NaN,24.284,   NaN,14.58,1013.05,91.27,15.07,317.7,317.7,8.3,8.7,157.6,160.5,5.5,5.8,NaN, NaN,19.2,236.6,238.4,1114646733,1114646732,1,10.1,000332,000332,240.2,33.877103,-121.689880,9.87,NaN,NaN,15.447, NaN,NaN,NaN, NaN, NaN
20050428,000603,1155796,33.876306,-121.691533,4.5,15.391,32.976,41.056,2099.75,0.0,1.104,14.813,14.777, NaN,24.327,   NaN,14.59,1013.06,91.26,15.12,317.3,316.5,8.6,8.9,158.7,160.0,5.7,6.0,NaN, NaN,18.3,247.2,238.1,1114646763,1114646762,1,10.8,000362,000362,241.2,33.876335,-121.691376,10.01,NaN,NaN,15.395, NaN,NaN,NaN, NaN, NaN
20050428,000632,1155825,33.875543,-121.693000,4.6,15.345,33.011,41.052,2107.59,0.0,1.142,14.828,14.794, NaN,24.364,   NaN,14.58,1013.06,91.26,15.09,318.5,317.2,8.4,8.9,160.6,162.2,5.5,6.0,NaN, NaN,18.8,237.2,238.4,1114646792,1114646792,1,10.4,000392,000392,240.9,33.875576,-121.692840,9.59,NaN,NaN,15.349, NaN,NaN,NaN, NaN, NaN
20050428,000702,1155855,33.874790,-121.694490,4.7,15.313,33.030,41.042,2074.59,0.0,1.104,14.840,14.806, NaN,24.385,   NaN,14.58,1013.07,91.20,15.08,319.7,318.2,8.4,9.1,161.8,164.5,5.3,6.0,NaN, NaN,18.8,245.4,240.9,1114646823,1114646822,1,10.6,000422,000422,240.4,33.874808,-121.694336,9.95,NaN,NaN,15.317, NaN,NaN,NaN, NaN, NaN
20050428,000732,1155885,33.874010,-121.695996,4.5,15.308,33.016,41.022,2074.58,0.0,1.086,14.845,14.812, NaN,24.375,   NaN,14.56,1013.13,91.23,15.07,318.3,317.6,8.6,9.3,160.9,164.4,5.6,6.2,NaN, NaN,18.9,238.0,240.8,1114646853,1114646852,1,10.3,000452,000452,240.7,33.874031,-121.695845,9.88,NaN,NaN,15.312, NaN,NaN,NaN, NaN, NaN
20050428,000803,1155916,33.873236,-121.697495,4.5,15.295,33.017,41.011,2081.75,0.0,1.086,14.850,14.819, NaN,24.379,   NaN,14.59,1013.14,91.33,15.08,316.0,316.9,8.4,9.0,157.0,161.7,5.7,6.1,NaN, NaN,19.3,238.8,239.9,1114646883,1114646882,1,10.7,000482,000482,240.7,33.873260,-121.697338,9.81,NaN,NaN,15.299, NaN,NaN,NaN, NaN, NaN
20050428,000832,1155945,33.872460,-121.699013,4.6,15.298,32.998,40.992,2064.89,0.0,1.123,14.851,14.818, NaN,24.364,   NaN,14.59,1013.07,91.23,15.10,317.7,319.1,8.2,8.9,157.7,163.8,5.4,5.8,NaN, NaN,18.7,238.8,240.6,1114646913,1114646912,1,10.7,000512,000512,240.7,33.872485,-121.698861,10.06,NaN,NaN,15.302, NaN,NaN,NaN, NaN, NaN
20050428,000902,1155975,33.871680,-121.700535,4.6,15.294,32.986,40.975,2060.70,0.0,1.086,14.843,14.806, NaN,24.356,   NaN,14.55,1013.17,91.13,15.06,319.8,319.9,8.3,9.1,160.3,165.3,5.2,5.8,NaN, NaN,19.0,240.2,239.5,1114646943,1114646942,1,10.8,000542,000542,240.5,33.871705,-121.700385,10.09,NaN,NaN,15.298, NaN,NaN,NaN, NaN, NaN
20050428,000932,1156005,33.870900,-121.702043,4.7,15.289,32.976,40.960,2044.61,0.0,1.067,14.834,14.798, NaN,24.349,   NaN,14.56,1013.07,91.26,15.06,318.3,318.4,8.2,8.9,157.4,161.9,5.3,5.8,NaN, NaN,20.2,238.8,235.0,1114646973,1114646972,1,10.4,000572,000572,240.4,33.870926,-121.701891,9.90,NaN,NaN,15.293, NaN,NaN,NaN, NaN, NaN
20050428,001002,1156035,33.870136,-121.703540,4.5,15.281,32.972,40.948,2015.62,0.0,1.086,14.830,14.795, NaN,24.348,   NaN,14.59,1013.11,91.25,15.07,318.6,317.8,8.1,8.8,157.5,161.1,5.2,5.8,NaN, NaN,18.7,237.4,237.1,1114647003,1114647002,1,10.4,000602,000602,240.4,33.870166,-121.703395,9.92,NaN,NaN,15.285, NaN,NaN,NaN, NaN, NaN
20050428,001032,1156065,33.869378,-121.705021,4.7,15.268,32.974,40.937,2051.83,0.0,1.048,14.828,14.794, NaN,24.352,   NaN,14.56,1013.01,91.18,15.04,318.5,315.9,8.3,8.8,159.1,159.7,5.4,6.0,NaN, NaN,18.6,237.2,236.1,1114647033,1114647032,1,10.7,000632,000632,240.5,33.869401,-121.704876,9.81,NaN,NaN,15.272, NaN,NaN,NaN, NaN, NaN
20050428,001102,1156095,33.868608,-121.706513,4.6,15.258,32.973,40.927,2031.75,0.0,1.067,14.830,14.795, NaN,24.353,   NaN,14.58,1013.04,91.21,15.07,318.0,314.9,8.7,9.0,161.2,159.3,5.7,6.2,NaN, NaN,18.4,242.0,239.2,1114647062,1114647062,1,10.5,000662,000662,241.4,33.868633,-121.706366,9.80,NaN,NaN,15.262, NaN,NaN,NaN, NaN, NaN
20050428,001132,1156125,33.867838,-121.707991,4.6,15.257,32.970,40.922,1996.16,0.0,1.086,14.841,14.806, NaN,24.351,   NaN,14.58,1013.08,91.25,15.06,318.2,316.1,8.9,8.9,162.6,160.4,5.8,6.1,NaN, NaN,18.3,236.3,240.2,1114647093,1114647092,1,10.1,000692,000692,240.2,33.867860,-121.707850,9.74,NaN,NaN,15.261, NaN,NaN,NaN, NaN, NaN
20050428,001202,1156155,33.867055,-121.709501,4.6,15.257,32.958,40.910,2015.23,0.0,1.067,14.849,14.817, NaN,24.343,   NaN,14.65,1013.08,91.36,15.13,318.0,316.8,8.6,8.9,160.4,161.0,5.7,6.0,NaN, NaN,19.3,233.5,234.6,1114647122,1114647122,1,10.7,000722,000722,240.5,33.867076,-121.709351,9.95,NaN,NaN,15.261, NaN,NaN,NaN, NaN, NaN
20050428,001232,1156185,33.866278,-121.711015,4.6,15.258,32.951,40.903,2041.90,0.0,1.086,14.852,14.818, NaN,24.336,   NaN,14.57,1013.16,91.02,15.10,317.4,318.6,8.5,9.1,158.2,163.4,5.6,5.9,NaN, NaN,19.2,231.4,239.8,1114647152,1114647152,1,10.9,000752,000752,240.2,33.866311,-121.710878,9.88,NaN,NaN,15.262, NaN,NaN,NaN, NaN, NaN
20050428,001302,1156215,33.865495,-121.712545,4.6,15.269,32.935,40.895,2020.09,0.0,1.029,14.851,14.819, NaN,24.322,   NaN,14.57,1013.16,91.14,15.07,317.6,318.8,8.7,9.3,159.8,164.8,5.8,6.1,NaN, NaN,19.0,238.6,240.1,1114647183,1114647182,1,10.8,000782,000782,240.9,33.865523,-121.712396,10.00,NaN,NaN,15.273, NaN,NaN,NaN, NaN, NaN
20050428,001333,1156246,33.864688,-121.714053,4.6,15.278,32.925,40.892,2002.53,0.0,1.067,14.852,14.819, NaN,24.312,   NaN,14.58,1013.12,91.18,15.06,318.7,318.7,8.7,9.4,161.0,165.2,5.6,6.1,NaN, NaN,19.3,245.8,234.3,1114647213,1114647212,1,10.6,000812,000812,241.0,33.864718,-121.713908,10.14,NaN,NaN,15.282, NaN,NaN,NaN, NaN, NaN
20050428,001402,1156275,33.863921,-121.715571,4.6,15.280,32.919,40.887,1943.37,0.0,1.029,14.852,14.820, NaN,24.307,   NaN,14.57,1013.09,91.11,15.05,317.1,317.4,8.8,9.4,159.8,163.6,5.9,6.3,NaN, NaN,20.1,232.4,236.3,1114647243,1114647242,1,10.5,000842,000842,240.5,33.863943,-121.715423,9.88,NaN,NaN,15.284, NaN,NaN,NaN, NaN, NaN
20050428,001432,1156305,33.863136,-121.717065,4.7,15.283,32.915,40.886,1829.85,0.0,1.029,14.859,14.823, NaN,24.303,   NaN,14.59,1013.04,91.26,15.05,317.1,317.7,8.8,9.3,159.6,163.7,5.8,6.2,NaN, NaN,20.0,236.0,234.3,1114647273,1114647272,1,10.8,000872,000872,240.2,33.863148,-121.716928,9.93,NaN,NaN,15.287, NaN,NaN,NaN, NaN, NaN
20050428,001502,1156335,33.862361,-121.718555,4.7,15.288,32.911,40.886,1783.08,0.0,1.029,14.865,14.829, NaN,24.300,   NaN,14.58,1013.05,91.18,15.05,316.7,316.9,8.9,9.4,160.0,163.7,6.0,6.4,NaN, NaN,19.6,233.5,237.4,1114647302,1114647302,1,10.8,000902,000902,240.2,33.862371,-121.718411,9.77,NaN,NaN,15.292, NaN,NaN,NaN, NaN, NaN
20050428,001532,1156365,33.861566,-121.720058,4.7,15.292,32.910,40.888,1834.76,0.0,1.010,14.872,14.835, NaN,24.297,   NaN,14.56,1013.04,91.24,15.03,317.1,316.2,9.1,9.6,161.9,163.6,6.1,6.5,NaN, NaN,19.5,237.1,237.1,1114647332,1114647332,1,10.5,000932,000932,240.5,33.861590,-121.719920,9.98,NaN,NaN,15.296, NaN,NaN,NaN, NaN, NaN
20050428,001603,1156396,33.860796,-121.721563,4.6,15.294,32.909,40.889,1893.42,0.0,0.991,14.868,14.831, NaN,24.296,   NaN,14.59,1013.18,91.19,15.05,317.9,318.1,8.8,9.4,160.7,164.6,5.7,6.2,NaN, NaN,19.9,247.9,243.9,1114647363,1114647362,1,10.5,000962,000962,240.3,33.860811,-121.721418,9.90,NaN,NaN,15.298, NaN,NaN,NaN, NaN, NaN
20050428,001632,1156425,33.860011,-121.723036,4.5,15.303,32.903,40.891,1925.75,0.0,1.010,14.853,14.816, NaN,24.290,   NaN,14.59,1013.19,91.19,15.06,317.2,318.5,8.7,9.3,160.0,165.3,5.8,6.1,NaN, NaN,19.1,235.2,234.9,1114647393,1114647392,1,10.4,000992,000992,240.3,33.860035,-121.722901,9.96,NaN,NaN,15.307, NaN,NaN,NaN, NaN, NaN
20050428,001702,1156455,33.859230,-121.724546,4.6,15.312,32.897,40.893,1955.53,0.0,1.029,14.843,14.806, NaN,24.284,   NaN,14.59,1013.12,91.13,15.06,316.7,317.6,9.0,9.3,161.1,164.1,6.1,6.2,NaN, NaN,20.0,228.2,235.1,1114647422,1114647422,1,10.7,001022,001022,240.0,33.859255,-121.724408,9.94,NaN,NaN,15.316, NaN,NaN,NaN, NaN, NaN
20050428,001733,1156486,33.858458,-121.726056,4.5,15.303,32.908,40.896,1911.61,0.0,1.086,14.838,14.801, NaN,24.294,   NaN,14.60,1013.12,91.15,15.09,317.6,316.7,9.0,9.4,161.7,163.4,6.0,6.4,NaN, NaN,18.5,242.6,240.4,1114647453,1114647452,1,10.7,001052,001052,240.9,33.858475,-121.725910,10.12,NaN,NaN,15.307, NaN,NaN,NaN, NaN, NaN
20050428,001803,1156516,33.857680,-121.727563,4.7,15.291,32.920,40.900,1960.18,0.0,0.991,14.840,14.805, NaN,24.306,   NaN,14.59,1013.07,91.13,15.07,318.4,317.5,8.7,9.3,161.2,164.0,5.7,6.2,NaN, NaN,19.1,241.1,240.3,1114647483,1114647482,1,10.6,001082,001082,240.0,33.857696,-121.727425,9.99,NaN,NaN,15.295, NaN,NaN,NaN, NaN, NaN
20050428,001832,1156545,33.856908,-121.729078,4.7,15.279,32.935,40.905,1945.30,0.0,1.010,14.847,14.813, NaN,24.320,   NaN,14.61,1013.09,91.07,15.07,317.9,318.5,8.8,9.3,161.0,164.7,5.8,6.1,NaN, NaN,19.1,243.8,239.2,1114647512,1114647512,1,11.0,001112,001112,240.2,33.856918,-121.728935,9.97,NaN,NaN,15.283, NaN,NaN,NaN, NaN, NaN
20050428,001902,1156575,33.856215,-121.730566,4.7,15.273,32.940,40.904,1959.46,0.0,0.991,14.854,14.821, NaN,24.325,   NaN,14.59,1013.09,91.06,15.08,315.4,315.7,9.0,9.3,161.4,163.8,6.1,6.3,NaN, NaN,19.1,242.7,242.9,1114647543,1114647542,1,10.1,001142,001142,249.5,33.856205,-121.730418,9.60,NaN,NaN,15.277, NaN,NaN,NaN, NaN, NaN
20050428,001932,1156605,33.855620,-121.732161,4.6,15.272,32.937,40.901,2009.87,0.0,0.991,14.864,14.828, NaN,24.323,   NaN,14.60,1013.10,91.10,15.10,312.4,311.7,8.8,8.9,161.5,161.1,6.3,6.4,NaN, NaN,19.6,239.2,246.5,1114647572,1114647572,1,10.4,001172,001172,247.2,33.855635,-121.732016,9.85,NaN,NaN,15.276, NaN,NaN,NaN, NaN, NaN
20050428,002002,1156635,33.855028,-121.733775,4.6,15.283,32.928,40.901,2008.31,0.0,0.991,14.865,14.828, NaN,24.314,   NaN,14.60,1013.07,91.01,15.11,310.4,310.4,8.9,8.8,160.9,160.5,6.6,6.5,NaN, NaN,18.1,250.5,251.5,1114647602,1114647602,1,10.8,001202,001202,247.7,33.855036,-121.733623,9.93,NaN,NaN,15.287, NaN,NaN,NaN, NaN, NaN
20050428,002033,1156666,33.854411,-121.735353,4.6,15.294,32.917,40.899,2045.58,0.0,0.953,14.867,14.829, NaN,24.303,   NaN,14.61,1013.15,91.03,15.10,311.2,310.0,8.9,8.9,161.2,160.4,6.5,6.7,NaN, NaN,17.8,242.4,241.0,1114647633,1114647632,1,10.4,001232,001232,247.6,33.854420,-121.735210,9.96,NaN,NaN,15.298, NaN,NaN,NaN, NaN, NaN
20050428,002103,1156696,33.853806,-121.736951,4.8,15.298,32.913,40.899,1925.48,0.0,0.972,14.870,14.832, NaN,24.299,   NaN,14.61,1013.02,90.91,15.10,309.9,309.0,9.1,8.7,160.7,158.2,6.8,6.6,NaN, NaN,17.4,239.4,243.3,1114647663,1114647662,1,10.5,001262,001262,247.2,33.853813,-121.736805,9.74,NaN,NaN,15.302, NaN,NaN,NaN, NaN, NaN
20050428,002132,1156725,33.853195,-121.738568,4.6,15.299,32.914,40.900,1600.48,0.0,0.972,14.877,14.840, NaN,24.299,   NaN,14.61,1013.07,91.11,15.06,308.5,308.7,9.1,8.6,159.4,156.5,6.9,6.5,NaN, NaN,16.4,248.1,251.5,1114647693,1114647692,1,10.6,001292,001292,248.0,33.853200,-121.738418,9.88,NaN,NaN,15.303, NaN,NaN,NaN, NaN, NaN
20050428,002202,1156755,33.852576,-121.740166,4.6,15.299,32.915,40.901,1399.27,0.0,0.935,14.875,14.838, NaN,24.300,   NaN,14.63,1013.11,91.31,15.05,310.7,309.5,9.0,8.5,160.5,156.8,6.6,6.4,NaN, NaN,16.6,248.2,247.2,1114647723,1114647722,1,10.5,001322,001322,247.5,33.852581,-121.740023,9.90,NaN,NaN,15.303, NaN,NaN,NaN, NaN, NaN
20050428,002233,1156786,33.851961,-121.741768,4.9,15.302,32.914,40.903,1369.15,0.0,0.953,14.868,14.831, NaN,24.299,   NaN,14.58,1013.03,91.18,15.03,310.1,308.8,9.2,9.1,161.4,159.1,6.9,6.9,NaN, NaN,17.0,242.1,246.0,1114647753,1114647752,1,10.5,001352,001352,247.1,33.851968,-121.741623,9.86,NaN,NaN,15.306, NaN,NaN,NaN, NaN, NaN
20050428,002302,1156815,33.851336,-121.743376,4.9,15.311,32.910,40.907,1654.90,0.0,0.953,14.858,14.821, NaN,24.294,   NaN,14.58,1013.15,91.30,15.02,309.1,307.8,9.1,9.2,160.0,159.2,6.9,7.1,NaN, NaN,16.9,242.8,243.5,1114647782,1114647782,1,10.2,001382,001382,247.2,33.851341,-121.743233,10.09,NaN,NaN,15.315, NaN,NaN,NaN, NaN, NaN
20050428,002332,1156845,33.850708,-121.744978,4.9,15.311,32.911,40.908,1832.59,0.0,0.972,14.846,14.811, NaN,24.294,   NaN,14.59,1013.02,91.06,15.08,309.5,308.8,9.4,9.2,161.3,160.0,7.0,7.0,NaN, NaN,16.9,240.1,241.1,1114647812,1114647812,1,10.8,001412,001412,247.2,33.850713,-121.744835,9.91,NaN,NaN,15.315, NaN,NaN,NaN, NaN, NaN
20050428,002402,1156875,33.850101,-121.746583,4.9,15.310,32.915,40.912,1995.77,0.0,0.953,14.847,14.812, NaN,24.298,   NaN,14.55,1013.04,90.90,15.02,308.1,308.0,10.2,9.6,163.4,161.2,7.8,7.4,NaN, NaN,16.8,236.6,243.4,1114647842,1114647842,1,10.8,001442,001442,247.9,33.850095,-121.746436,9.80,NaN,NaN,15.314, NaN,NaN,NaN, NaN, NaN
20050428,002433,1156906,33.849488,-121.748185,4.7,15.312,32.913,40.911,1966.27,0.0,0.935,14.852,14.817, NaN,24.295,   NaN,14.62,1013.19,90.99,15.08,307.4,307.9,9.7,9.3,160.7,159.8,7.5,7.1,NaN, NaN,17.1,243.4,247.0,1114647873,1114647872,1,10.4,001472,001472,247.0,33.849481,-121.748040,10.04,NaN,NaN,15.316, NaN,NaN,NaN, NaN, NaN
20050428,002502,1156935,33.848868,-121.749801,4.8,15.334,32.899,40.916,1991.26,0.0,0.953,14.859,14.820, NaN,24.280,   NaN,14.65,1013.08,90.97,15.12,308.5,309.1,9.1,9.0,159.1,159.4,7.0,6.8,NaN, NaN,16.6,255.0,249.2,1114647903,1114647902,1,10.0,001502,001502,247.5,33.848861,-121.749653,9.96,NaN,NaN,15.338, NaN,NaN,NaN, NaN, NaN
20050428,002532,1156965,33.848248,-121.751411,4.8,15.367,32.873,40.918,2012.14,0.0,0.897,14.862,14.823, NaN,24.253,   NaN,14.65,1013.20,90.80,15.12,308.2,310.2,9.4,9.0,159.9,160.7,7.2,6.7,NaN, NaN,16.1,248.0,245.5,1114647932,1114647932,1,10.5,001532,001532,248.2,33.848245,-121.751265,10.03,NaN,NaN,15.371, NaN,NaN,NaN, NaN, NaN
20050428,002602,1156995,33.847620,-121.753020,4.9,15.396,32.855,40.924,1987.21,0.0,0.897,14.863,14.826, NaN,24.233,   NaN,14.59,1013.06,90.68,15.08,306.9,307.4,9.8,9.2,160.7,158.8,7.7,7.1,NaN, NaN,15.4,248.2,240.5,1114647962,1114647962,1,10.8,001562,001562,247.5,33.847625,-121.752868,10.09,NaN,NaN,15.400, NaN,NaN,NaN, NaN, NaN
20050428,002632,1157025,33.847051,-121.754566,4.7,15.419,32.845,40.935,2028.58,0.0,0.916,14.860,14.823, NaN,24.219,   NaN,14.65,1013.10,90.83,15.08,308.5,306.3,9.4,9.3,161.8,159.1,7.2,7.4,NaN, NaN,16.7,245.0,244.5,1114647992,1114647992,1,10.1,001592,001592,247.7,33.847051,-121.754416,9.78,NaN,NaN,15.423, NaN,NaN,NaN, NaN, NaN
20050428,002702,1157055,33.846453,-121.756155,4.8,15.455,32.824,40.946,2035.59,0.0,0.916,14.850,14.815, NaN,24.196,   NaN,14.65,1013.06,90.65,15.12,309.9,307.4,9.3,9.3,163.0,160.0,7.0,7.2,NaN, NaN,15.9,246.6,245.8,1114648022,1114648022,1,10.7,001622,001622,247.9,33.846453,-121.756003,10.08,NaN,NaN,15.459, NaN,NaN,NaN, NaN, NaN
20050428,002733,1157086,33.845855,-121.757748,5.0,15.468,32.829,40.963,2068.13,0.0,0.916,14.844,14.808, NaN,24.196,   NaN,14.66,1013.13,90.62,15.12,308.1,307.9,9.5,9.2,161.3,159.6,7.3,7.1,NaN, NaN,15.9,248.4,251.3,1114648053,1114648052,1,10.8,001652,001652,247.9,33.845856,-121.757601,10.17,NaN,NaN,15.472, NaN,NaN,NaN, NaN, NaN
20050428,002803,1157116,33.845241,-121.759341,5.0,15.480,32.834,40.980,2037.86,0.0,0.897,14.830,14.793, NaN,24.198,   NaN,14.69,1013.06,90.69,15.17,308.1,308.8,9.6,9.4,161.5,161.4,7.4,7.1,NaN, NaN,16.6,246.6,248.1,1114648083,1114648082,1,10.5,001682,001682,247.5,33.845248,-121.759193,9.96,NaN,NaN,15.484, NaN,NaN,NaN, NaN, NaN
20050428,002832,1157145,33.844631,-121.760933,4.9,15.485,32.850,41.002,1934.78,0.0,0.897,14.816,14.778, NaN,24.209,   NaN,14.62,1013.08,90.41,15.11,308.8,309.1,9.8,9.4,163.1,161.6,7.5,7.2,NaN, NaN,15.9,254.9,246.8,1114648113,1114648112,1,10.4,001712,001712,247.7,33.844635,-121.760785,10.04,NaN,NaN,15.489, NaN,NaN,NaN, NaN, NaN
20050428,002903,1157176,33.844010,-121.762521,4.9,15.485,32.866,41.020,1947.99,0.0,0.897,14.809,14.774, NaN,24.221,   NaN,14.63,1013.02,90.54,15.10,307.3,307.0,10.0,9.5,162.4,159.9,7.8,7.4,NaN, NaN,16.4,243.1,243.2,1114648143,1114648142,1,10.8,001742,001742,247.5,33.844016,-121.762378,10.08,NaN,NaN,15.489, NaN,NaN,NaN, NaN, NaN
20050428,002933,1157206,33.843385,-121.764148,4.8,15.480,32.884,41.035,2017.61,0.0,0.897,14.817,14.780, NaN,24.236,   NaN,14.67,1013.09,90.58,15.15,310.2,308.2,9.7,9.4,164.6,161.0,7.3,7.2,NaN, NaN,17.2,249.9,246.1,1114648173,1114648173,1,10.1,001773,001773,247.5,33.843385,-121.764000,10.05,NaN,NaN,15.484, NaN,NaN,NaN, NaN, NaN
20050428,003002,1157235,33.842796,-121.765680,4.7,15.479,32.896,41.048,2039.09,0.0,0.897,14.826,14.790, NaN,24.246,   NaN,14.67,1013.20,90.36,15.15,311.5,309.3,9.5,9.5,164.9,163.0,6.9,7.2,NaN, NaN,16.8,240.6,242.9,1114648202,1114648202,1,10.2,001802,001802,247.4,33.842795,-121.765533,10.09,NaN,NaN,15.483, NaN,NaN,NaN, NaN, NaN
20050428,003033,1157266,33.842183,-121.767280,4.8,15.465,32.917,41.058,2032.05,0.0,0.897,14.839,14.802, NaN,24.265,   NaN,14.65,1013.08,90.24,15.13,309.9,308.9,9.6,9.7,163.5,163.2,7.2,7.4,NaN, NaN,17.3,237.3,247.2,1114648233,1114648232,1,10.7,001832,001832,247.5,33.842180,-121.767131,10.05,NaN,NaN,15.469, NaN,NaN,NaN, NaN, NaN
20050428,003103,1157296,33.841568,-121.768871,4.8,15.452,32.931,41.062,2025.86,0.0,0.897,14.849,14.813, NaN,24.279,   NaN,14.66,1013.06,90.29,15.14,311.1,309.8,9.8,9.6,165.6,163.4,7.2,7.2,NaN, NaN,17.7,246.3,247.2,1114648263,1114648262,1,10.2,001862,001862,247.9,33.841561,-121.768720,10.10,NaN,NaN,15.456, NaN,NaN,NaN, NaN, NaN
20050428,003132,1157325,33.840951,-121.770458,4.8,15.448,32.937,41.065,2025.16,0.0,0.897,14.863,14.828, NaN,24.284,   NaN,14.66,1013.01,90.15,15.15,309.6,309.2,9.8,9.6,164.3,163.1,7.4,7.3,NaN, NaN,17.7,255.7,246.9,1114648293,1114648292,1,10.7,001892,001892,247.2,33.840943,-121.770303,10.05,NaN,NaN,15.452, NaN,NaN,NaN, NaN, NaN
20050428,003202,1157355,33.840333,-121.772023,5.0,15.455,32.931,41.064,2003.90,0.0,0.916,14.872,14.838, NaN,24.278,   NaN,14.67,1013.05,90.10,15.14,306.1,306.0,9.9,9.7,160.8,159.9,7.8,7.6,NaN, NaN,17.7,248.2,244.5,1114648323,1114648322,1,10.4,001922,001922,247.5,33.840331,-121.771870,9.91,NaN,NaN,15.459, NaN,NaN,NaN, NaN, NaN
20050428,003232,1157385,33.839713,-121.773605,4.9,15.465,32.921,41.063,1997.45,0.0,0.897,14.873,14.839, NaN,24.268,   NaN,14.69,1013.03,90.13,15.15,307.1,306.7,9.7,9.2,161.2,158.5,7.6,7.2,NaN, NaN,16.9,242.5,241.6,1114648353,1114648352,1,10.7,001952,001952,247.9,33.839718,-121.773451,10.29,NaN,NaN,15.469, NaN,NaN,NaN, NaN, NaN
20050428,003303,1157416,33.839123,-121.775185,4.7,15.477,32.910,41.062,2002.68,0.0,0.916,14.889,14.856, NaN,24.257,   NaN,14.71,1013.07,90.07,15.19,311.0,309.9,9.1,9.2,162.5,161.7,6.7,6.8,NaN, NaN,17.7,249.3,246.6,1114648383,1114648382,1,10.1,001982,001982,247.4,33.839120,-121.775028,9.97,NaN,NaN,15.481, NaN,NaN,NaN, NaN, NaN
20050428,003333,1157446,33.838498,-121.776760,5.0,15.490,32.902,41.064,1994.12,0.0,0.897,14.921,14.889, NaN,24.248,   NaN,14.68,1012.83,89.97,15.19,311.4,309.2,9.3,9.4,163.4,162.2,6.8,7.1,NaN, NaN,17.4,250.6,244.2,1114648413,1114648412,1,11.0,002012,002012,247.4,33.838500,-121.776610,10.00,NaN,NaN,15.494, NaN,NaN,NaN, NaN, NaN
20050428,003402,1157475,33.837901,-121.778328,4.7,15.496,32.899,41.067,2000.19,0.0,0.897,14.947,14.913, NaN,24.244,   NaN,14.68,1013.04,89.98,15.17,308.0,307.6,9.1,9.2,159.2,159.6,7.0,7.1,NaN, NaN,17.7,246.0,248.5,1114648443,1114648442,1,10.3,002042,002042,246.7,33.837893,-121.778178,9.93,NaN,NaN,15.500, NaN,NaN,NaN, NaN, NaN
20050428,003433,1157506,33.837276,-121.779900,4.8,15.504,32.896,41.071,1998.50,0.0,0.916,14.961,14.927, NaN,24.240,   NaN,14.67,1012.97,89.88,15.16,308.2,308.4,8.9,9.1,158.4,160.2,6.8,7.0,NaN, NaN,16.8,249.1,244.4,1114648473,1114648472,1,10.7,002072,002072,247.4,33.837265,-121.779750,10.22,NaN,NaN,15.508, NaN,NaN,NaN, NaN, NaN
20050428,003503,1157536,33.836661,-121.781510,4.7,15.511,32.898,41.080,1996.72,0.0,0.897,14.961,14.928, NaN,24.240,   NaN,14.67,1012.86,89.88,15.15,309.2,308.3,9.4,9.1,162.3,160.4,7.1,7.0,NaN, NaN,17.9,245.9,246.9,1114648503,1114648503,1,9.9,002103,002103,247.7,33.836651,-121.781355,9.84,NaN,NaN,15.515, NaN,NaN,NaN, NaN, NaN
20050428,003532,1157565,33.836063,-121.783028,4.8,15.531,32.887,41.087,1990.07,0.0,0.897,14.961,14.926, NaN,24.227,   NaN,14.69,1012.96,89.85,15.16,307.9,307.2,9.0,8.9,159.1,157.9,6.9,6.9,NaN, NaN,17.4,241.4,246.6,1114648533,1114648532,1,10.5,002132,002132,247.7,33.836055,-121.782876,9.94,NaN,NaN,15.535, NaN,NaN,NaN, NaN, NaN